RH
74 73 73 73 73 72 71 70 71 71 71 72 75 80 84 85 82 78 75 75 77 79 81 79 76 72 70 74 81 90 96 98 97 95 90 88 87 87 88 90 92 93 94 96 98 99 98 99 99 98 97 96 96 96 97 99 99 99 100 99 99 98 96 98 99 99 99 100 100 100 100 100 100 100 99 99 99 98 96 94 91 87 84 90 92 94
73 73 73 72 72 71 70 69 69 69 68 70 75 82 88 89 86 82 77 76 77 80 82 80 76 73 71 71 76 83 92 97 98 98 96 93 90 89 88 89 91 92 92 94 97 99 98 98 98 99 99 100 99 99 98 98 99 99 99 100 99 98 95 97 98 99 99 100 100 100 100 100 100 100 100 99 99 98 95 91 88 85 84 91 94 94
73 73 72 72 72 71 70 70 69 68 68 73 81 88 93 93 90 86 81 78 78 79 82 80 77 74 72 70 73 79 87 94 98 99 99 98 95 92 89 90 90 91 90 94 97 99 98 98 95 93 94 97 99 100 100 100 99 99 99 99 99 98 94 94 96 98 99 100 100 100 100 100 100 100 100 100 99 98 94 89 86 85 87 94 96 96
76 74 73 73 72 72 71 70 69 69 71 80 88 94 95 94 91 87 83 81 79 78 79 78 77 75 73 70 71 75 83 91 96 99 99 99 98 96 92 91 90 90 90 95 98 100 99 94 87 82 82 86 92 98 100 100 100 100 100 99 99 97 94 92 93 95 97 99 100 100 100 100 100 100 100 100 99 98 93 88 85 86 89 96 98 98
79 77 75 75 73 72 70 70 70 73 79 87 91 93 92 91 89 87 83 82 81 80 79 77 76 74 73 70 69 72 82 89 94 97 99 99 99 98 95 92 90 90 92 96 98 99 99 87 78 72 70 74 82 91 98 99 100 100 100 99 99 97 93 91 91 92 95 99 100 100 100 100 100 100 100 100 100 98 95 89 86 87 91 97 99 98
82 80 78 77 74 72 71 72 75 80 85 87 88 89 90 89 88 86 85 85 85 83 80 77 75 73 71 69 69 73 83 88 91 93 97 98 99 98 96 93 91 91 96 98 99 98 96 81 71 65 63 66 74 84 94 98 99 100 99 99 99 97 94 91 90 90 93 98 100 100 100 100 100 100 100 100 100 99 98 92 88 88 93 97 99 99
87 85 83 81 78 75 75 76 78 81 83 84 85 86 87 88 88 87 86 87 88 86 82 78 75 72 70 69 70 74 85 88 88 89 94 96 98 98 97 95 94 95 98 99 99 97 89 75 67 62 60 61 68 77 89 95 98 99 99 99 99 98 95 92 89 89 93 98 100 100 100 100 100 100 100 100 100 100 99 96 91 90 95 98 99 99
93 90 87 84 82 81 80 81 81 81 82 83 85 87 87 88 89 89 88 88 88 88 85 81 76 72 70 70 70 74 83 87 88 87 90 94 97 99 99 98 97 98 99 99 98 93 82 71 65 62 60 60 63 72 84 92 97 99 99 99 99 99 97 94 90 90 93 98 100 100 100 100 99 100 100 100 100 100 100 99 94 92 97 99 99 99
97 95 90 87 85 85 85 84 83 82 81 80 82 87 90 90 91 92 92 91 91 90 90 86 80 75 72 71 70 73 81 88 89 88 88 94 98 100 100 100 99 99 99 99 95 88 78 71 67 65 64 62 63 67 77 88 95 98 99 99 99 99 99 95 93 92 93 97 99 100 100 100 99 99 100 100 100 100 100 100 97 96 98 99 99 99
98 98 96 92 90 88 88 86 84 83 82 83 87 92 97 97 97 98 98 96 94 92 91 87 83 79 76 74 72 74 80 88 90 89 87 92 97 100 100 100 100 100 99 98 94 87 80 76 73 71 69 66 65 66 72 84 93 99 99 99 99 99 99 97 95 95 96 98 99 100 100 100 100 99 99 99 100 100 99 100 99 98 98 98 99 99
95 97 98 98 96 94 93 92 93 93 94 94 96 98 100 100 100 99 98 96 94 91 89 84 82 80 80 79 78 77 78 86 90 90 87 90 95 99 100 100 100 100 99 98 95 91 86 83 80 77 74 71 69 69 71 81 90 98 99 100 100 100 100 98 97 97 97 99 99 100 100 100 100 99 99 99 99 100 99 98 98 98 96 96 98 99
93 94 96 97 98 98 97 98 98 98 97 98 98 99 100 99 99 99 99 98 96 94 90 87 83 81 81 83 82 80 77 84 90 92 90 90 93 98 100 100 100 100 99 99 97 95 93 90 87 82 77 74 73 72 73 79 87 95 100 100 100 100 100 99 99 99 98 99 100 100 100 100 100 99 99 98 99 100 99 96 96 96 96 96 97 99
90 92 94 94 94 94 95 96 97 97 97 98 98 98 99 99 99 99 99 99 99 98 96 93 90 86 82 82 81 79 78 84 90 93 93 90 94 99 100 100 100 99 99 98 97 96 95 92 89 84 78 76 76 76 75 78 84 92 99 99 100 100 100 100 100 100 100 100 100 100 100 100 100 99 99 99 99 100 100 97 96 97 98 97 98 99
88 89 89 88 89 90 93 93 94 94 95 97 98 99 99 99 99 99 99 99 99 99 99 98 96 92 88 83 79 77 79 85 90 92 93 91 94 98 100 100 100 99 99 96 94 93 92 90 87 83 77 76 77 80 80 79 82 88 95 98 99 100 100 100 100 100 100 100 100 100 100 100 100 100 100 99 100 99 99 98 98 98 99 99 99 99
88 88 86 86 86 88 90 92 93 93 94 97 98 99 99 100 100 100 99 99 99 99 99 99 99 98 96 90 84 81 84 88 91 93 95 92 93 96 100 100 100 99 99 95 92 89 87 85 83 80 74 72 76 81 84 82 82 85 92 97 99 99 99 100 100 100 100 100 100 100 99 100 100 100 99 100 99 99 99 97 97 97 99 99 99 99
88 87 85 85 86 87 90 92 92 93 95 97 97 98 99 99 99 100 100 99 99 99 99 99 99 98 97 94 91 89 89 91 93 96 98 97 95 96 100 100 100 100 100 98 95 91 85 81 79 76 71 68 72 79 85 85 84 85 89 96 99 100 99 100 100 100 100 100 100 100 100 100 100 100 99 99 99 99 99 98 97 97 98 99 99 99
88 87 86 86 86 87 90 92 93 94 96 97 97 97 98 98 99 99 99 99 99 99 99 98 98 97 92 90 91 92 93 96 98 99 99 99 98 97 100 100 100 100 100 100 98 94 88 81 76 72 67 64 68 75 84 87 88 88 90 94 97 99 100 100 100 100 99 99 99 99 100 100 99 99 99 99 99 99 99 99 98 98 99 99 99 100
87 87 87 87 87 89 90 91 93 95 97 97 97 97 98 98 99 99 99 99 99 98 98 98 98 97 93 91 90 92 97 99 99 99 100 99 99 98 99 100 100 100 100 100 99 97 92 83 75 68 64 61 64 72 81 88 91 93 93 96 98 100 100 100 100 100 99 98 98 99 100 100 99 99 99 99 99 99 100 100 100 100 100 100 100 100
88 88 88 89 90 90 91 92 93 95 97 97 98 98 97 98 98 99 99 99 100 99 98 98 97 96 94 91 90 91 92 93 96 99 100 100 99 98 98 99 100 100 100 100 100 99 97 87 75 66 60 58 62 69 79 87 92 96 97 98 99 99 99 100 100 100 100 99 99 99 100 100 100 99 100 100 99 99 100 100 100 100 100 100 100 100
90 90 91 93 94 93 93 93 95 97 97 98 98 98 96 97 97 97 97 99 100 100 100 99 98 98 98 97 96 94 92 91 94 97 99 99 100 99 99 100 100 100 100 100 100 100 100 96 84 70 61 59 62 68 76 84 90 95 98 99 99 100 99 99 100 100 100 100 100 100 100 100 100 100 100 100 100 99 100 100 100 100 100 100 100 100
92 93 95 95 95 95 94 95 96 96 97 97 98 98 97 96 96 97 97 98 99 100 100 99 99 99 99 99 99 99 98 98 98 99 99 99 99 100 99 99 100 100 100 100 100 100 100 100 94 83 65 62 63 67 73 79 85 91 96 98 99 100 100 100 99 99 99 99 100 100 100 100 100 100 100 100 100 100 100 100 100 100 100 100 100 100
93 94 95 95 95 96 96 96 96 96 96 97 98 98 97 97 96 97 97 98 99 99 100 100 99 98 98 96 96 97 99 99 99 99 99 99 100 100 100 99 100 100 100 100 100 100 100 100 100 94 77 65 63 67 71 75 80 86 93 97 99 100 100 100 99 99 98 99 100 100 100 100 100 100 100 100 100 100 100 100 100 100 100 100 100 100
93 94 94 95 95 95 96 96 96 95 96 97 97 98 97 97 96 97 97 98 98 98 99 99 98 97 96 96 96 97 99 99 98 99 99 99 99 99 100 100 100 100 100 100 100 100 100 100 100 97 89 71 66 67 70 73 78 84 90 96 99 100 100 100 99 99 99 100 100 100 100 100 100 100 100 100 100 100 100 100 100 100 100 100 100 100
94 94 94 94 95 95 96 96 96 96 96 97 97 97 96 96 96 96 97 97 98 98 98 98 98 96 94 93 94 95 98 97 95 96 100 100 99 99 100 100 100 100 100 100 100 100 100 100 100 99 94 79 73 72 73 75 80 85 90 95 98 99 99 99 99 99 100 100 100 100 100 100 100 100 100 100 100 100 100 100 100 100 100 100 100 100
93 93 94 94 94 95 95 96 96 96 96 97 97 97 96 96 96 96 97 97 98 98 99 99 99 98 97 95 94 94 94 93 92 94 99 99 99 99 100 100 100 100 100 100 100 100 100 100 100 99 94 87 84 83 82 82 85 89 92 96 98 100 100 99 99 100 100 100 100 100 100 100 100 100 100 100 100 100 100 100 100 100 100 100 100 99
93 93 93 94 94 94 95 95 95 96 96 97 97 96 95 95 95 96 96 97 97 98 99 99 99 98 98 98 97 94 91 90 90 92 96 99 99 99 100 100 100 100 100 100 100 100 100 100 100 99 96 94 93 92 90 89 91 95 96 97 99 100 100 99 99 100 100 100 100 100 100 100 100 100 100 100 100 100 100 100 100 100 100 100 100 99
93 93 94 94 94 94 94 94 95 95 96 96 96 96 95 94 95 95 95 95 96 96 97 98 99 98 98 99 98 95 91 91 90 91 93 98 99 100 100 100 100 100 100 100 100 100 100 100 100 99 98 99 99 98 96 92 95 99 99 99 100 100 100 100 100 100 100 100 100 100 100 100 100 100 100 100 100 100 100 100 100 100 100 100 99 99
91 92 93 93 93 94 94 94 94 95 95 95 96 96 95 94 94 95 95 95 95 95 96 96 98 99 97 99 99 97 94 94 92 90 90 97 99 100 100 100 100 100 99 100 100 100 100 100 100 100 100 100 100 100 100 98 99 100 100 100 100 100 100 100 100 100 100 100 100 100 100 100 100 100 100 100 100 100 100 100 100 99 99 99 99 100
88 89 90 90 91 92 92 92 93 94 94 94 95 95 94 94 94 95 95 95 95 95 95 95 97 98 97 98 99 99 98 97 94 91 92 98 99 100 100 100 99 99 98 98 99 99 100 100 100 100 100 100 100 100 100 100 100 100 100 100 100 100 100 100 100 100 100 100 100 100 100 100 100 100 100 100 100 100 100 100 99 99 99 99 99 99
85 85 86 87 88 89 89 89 91 92 93 94 94 94 94 94 94 95 95 95 95 95 95 95 96 97 97 98 99 99 99 98 96 96 97 99 99 100 100 100 99 97 95 96 96 97 97 99 100 100 100 100 100 100 100 100 100 100 100 100 100 100 100 100 100 100 100 100 100 100 100 100 100 100 100 100 100 100 99 99 99 99 99 99 99 99
85 86 86 86 87 87 88 89 90 91 91 92 92 93 94 94 94 94 95 95 95 95 95 95 95 96 96 97 98 100 100 99 99 98 98 99 99 99 100 100 99 96 92 91 91 92 94 98 100 100 100 100 100 100 100 100 100 100 100 100 100 100 100 100 100 100 100 100 100 100 100 100 100 100 100 100 99 99 99 98 98 98 98 99 99 99
85 86 86 87 87 88 88 89 90 90 91 91 91 92 93 94 94 94 95 95 95 95 95 95 95 96 96 96 98 99 99 99 99 99 99 99 99 99 99 99 98 96 91 87 86 87 92 97 99 100 100 100 100 100 100 100 100 100 100 100 100 100 100 100 100 100 100 100 100 100 100 100 100 100 100 100 99 99 99 98 97 96 96 97 97 97
85 85 86 86 87 88 89 89 90 90 91 91 92 93 93 94 94 94 94 95 95 95 95 95 95 95 96 96 97 98 98 98 98 99 99 99 98 98 99 99 98 96 91 88 86 86 90 95 98 99 100 100 100 100 100 100 100 100 100 100 100 100 100 100 100 100 100 100 100 100 100 100 100 100 100 100 99 99 99 97 95 94 93 93 94 93
84 84 85 86 87 88 89 90 90 91 91 92 92 93 93 93 94 94 94 95 95 95 95 95 95 96 96 96 97 97 97 96 97 99 99 98 98 98 99 99 99 96 93 91 90 90 91 94 96 98 99 100 100 100 100 100 100 100 100 100 100 100 100 100 100 100 100 100 100 99 99 99 99 99 99 99 99 99 99 98 96 93 91 90 89 87
82 83 84 85 86 87 88 89 90 91 91 92 92 93 93 93 94 94 94 95 95 95 96 96 96 96 96 96 96 97 97 96 97 99 99 99 97 97 99 99 99 97 94 93 92 92 92 95 96 96 96 99 100 100 100 100 100 100 100 100 100 100 100 100 100 100 99 99 99 99 99 99 99 99 99 99 99 99 99 98 96 93 90 87 84 81
81 82 83 85 86 87 88 89 90 91 91 92 92 93 93 93 94 94 94 95 95 96 96 97 97 97 96 96 97 97 97 97 98 99 99 98 97 96 98 99 99 97 94 92 91 91 92 95 95 95 95 96 98 99 100 100 100 100 100 100 100 100 100 100 100 100 99 99 99 99 99 99 99 99 99 99 99 98 97 96 94 91 88 84 80 76
80 81 83 84 86 87 88 89 90 91 91 92 92 92 93 93 93 94 94 95 95 96 96 97 98 98 98 98 98 98 99 99 99 99 99 98 95 93 96 99 99 98 94 92 91 91 93 95 95 94 93 94 96 98 100 100 100 100 100 100 100 100 100 100 100 100 100 100 99 99 99 99 99 99 99 99 98 96 95 93 90 86 83 79 75 71
80 81 83 84 86 88 88 89 90 91 91 91 92 92 93 93 93 94 94 95 95 96 97 98 98 99 99 99 99 99 99 99 99 99 99 99 94 91 95 98 99 98 96 92 91 91 91 92 93 93 93 94 96 99 100 100 100 100 100 100 100 100 100 100 100 100 100 99 99 99 99 99 99 99 98 96 94 92 90 88 85 81 77 74 72 70
80 81 82 85 86 88 89 90 91 91 91 91 92 92 92 93 93 94 94 95 95 96 96 97 98 99 99 99 99 99 99 99 99 99 99 98 94 92 95 98 99 99 97 94 92 90 88 88 89 90 92 94 97 99 100 100 100 100 100 100 100 100 100 100 100 100 100 100 99 99 99 99 99 97 96 92 90 88 89 88 86 83 81 82 82 83
81 82 83 85 87 88 89 90 91 91 91 91 91 91 92 92 92 92 92 92 93 94 95 97 98 99 99 99 99 99 99 99 99 99 100 97 93 91 96 99 99 99 98 96 93 91 89 88 89 89 90 92 95 97 98 99 100 100 100 100 100 100 100 100 100 100 100 100 100 100 99 99 98 97 95 93 92 92 92 92 91 89 87 88 88 88
82 82 83 85 87 89 90 90 91 91 91 91 91 91 92 92 93 92 91 90 90 91 93 95 97 98 99 99 100 100 99 99 99 99 100 97 94 94 97 99 99 99 99 97 95 94 92 92 91 92 92 93 94 95 98 99 99 99 99 100 100 99 99 100 100 100 100 100 100 100 99 99 99 99 98 98 98 97 96 94 92 90 88 86 83 80
83 83 84 86 88 89 89 89 90 90 90 90 91 91 92 92 93 93 92 92 91 92 92 94 96 97 98 99 99 100 100 99 99 99 100 97 94 94 96 99 100 100 99 98 97 96 95 94 93 92 92 93 94 95 98 99 100 99 99 99 99 99 99 99 100 100 100 99 99 99 99 99 99 99 99 99 99 99 98 96 94 90 87 83 80 76
83 84 85 87 88 88 88 88 89 89 90 90 90 91 91 92 92 93 93 93 93 93 94 95 96 97 98 99 99 99 100 99 98 98 99 98 96 95 96 98 99 100 99 99 99 99 98 97 97 96 96 95 95 96 97 99 99 99 100 100 100 100 99 99 99 100 100 100 100 99 99 99 99 99 99 99 99 99 98 97 94 92 89 87 84 81
84 84 86 87 88 88 87 88 88 89 89 90 90 91 91 92 92 92 92 93 93 93 93 94 94 95 96 97 98 99 99 99 99 99 98 99 97 95 96 98 99 100 99 99 99 100 99 99 99 99 98 97 97 96 97 98 99 99 99 99 99 98 99 99 99 99 99 100 99 99 99 99 99 99 99 99 98 97 96 94 92 91 89 88 86 84
84 84 85 86 87 87 86 87 88 88 88 89 90 91 91 92 92 92 92 92 92 92 93 93 93 92 93 95 97 98 99 99 99 99 99 98 97 96 96 98 99 100 100 100 99 99 99 99 100 100 99 98 97 96 96 97 98 99 99 99 99 99 99 98 99 99 99 99 99 98 99 98 98 97 97 96 95 94 92 90 89 88 87 85 84 82
83 84 85 86 86 86 86 87 87 87 87 88 89 90 91 92 92 91 91 92 91 91 92 92 91 91 92 94 96 97 98 98 99 99 99 97 97 97 97 98 99 100 100 100 100 100 100 100 100 100 99 99 98 97 96 97 98 98 99 99 99 99 98 98 98 98 98 98 98 98 98 96 94 94 95 96 94 93 90 88 86 85 83 82 80 77
83 83 85 86 86 86 87 87 87 87 87 88 89 90 90 91 91 91 91 91 91 91 90 90 90 90 92 94 95 96 97 98 98 98 97 97 97 98 99 99 99 99 100 100 100 100 100 100 99 99 98 98 98 98 99 99 99 98 98 98 99 98 98 98 98 98 98 98 98 98 97 94 94 95 97 97 96 94 91 88 85 82 81 80 78 76
82 83 85 86 86 86 87 88 88 88 88 88 89 90 90 90 91 91 91 91 91 90 90 89 89 89 90 92 94 96 97 97 97 97 97 96 95 96 99 99 98 98 99 99 99 99 99 99 99 99 98 96 96 97 99 99 99 99 98 99 99 98 98 98 97 97 98 98 98 97 95 94 95 96 97 97 96 95 94 92 89 85 83 81 80 77
82 83 85 86 86 86 86 87 88 88 88 88 89 90 90 90 91 91 91 91 90 90 90 90 89 89 89 91 93 94 96 96 97 98 98 96 95 95 97 98 97 96 97 98 98 98 98 98 98 98 98 97 97 97 98 98 98 98 98 98 98 98 98 97 97 97 98 98 98 97 96 95 96 96 96 96 96 96 96 96 94 92 90 87 84 81
82 82 84 86 86 86 86 87 88 88 88 89 89 90 90 90 90 90 90 90 90 90 90 90 90 89 89 91 92 93 94 95 96 97 97 97 97 97 96 97 96 94 94 95 96 95 95 95 96 97 97 97 97 98 98 98 98 98 98 98 98 98 98 97 97 97 98 98 98 97 96 96 95 94 95 96 96 96 95 96 95 94 93 91 89 87
83 83 84 85 86 87 86 87 88 88 89 89 89 89 90 90 90 90 90 89 89 89 89 90 90 90 90 91 92 93 94 94 95 96 97 97 97 97 97 96 94 91 91 91 91 91 90 91 92 94 95 96 95 96 97 97 97 97 97 97 97 97 98 97 97 97 98 98 98 96 95 94 93 92 92 94 95 95 95 95 94 91 89 87 86 85
Wind_Speed
19 20 20 20 21 21 21 20 20 21 22 23 22 21 21 21 22 22 22 22 23 23 23 23 23 22 22 21 20 19 16 11 8 10 14 17 19 20 21 22 23 24 24 25 27 28 28 26 23 21 22 22 23 24 26 28 30 31 32 32 32 32 31 31 30 29 29 31 32 32 32 32 33 35 37 37 38 39 38 36 34 34 35 35 36 36
18 19 19 19 19 19 19 19 19 20 21 22 21 21 20 20 21 22 22 22 21 21 22 23 23 23 23 23 22 20 17 13 8 7 10 13 15 17 18 19 20 21 23 25 26 27 26 24 21 20 20 22 25 27 28 29 30 31 31 32 32 32 31 31 30 29 29 30 31 30 30 31 32 33 35 36 37 38 38 36 35 35 36 37 37 37
18 18 18 18 18 18 18 18 19 19 20 20 20 19 18 19 20 21 22 21 21 21 21 22 23 24 25 24 23 22 19 15 10 6 7 10 13 15 17 18 19 21 22 24 26 26 24 22 19 17 18 21 25 28 31 32 31 31 31 32 33 32 31 31 29 28 28 29 29 28 29 29 31 33 35 36 37 38 38 36 35 35 37 38 39 38
17 17 17 17 17 17 18 18 19 19 19 18 17 17 16 17 19 21 21 21 20 21 21 22 23 24 25 25 24 23 22 18 12 8 6 8 11 14 17 18 19 21 22 24 25 24 23 21 18 16 16 17 20 25 30 33 33 33 33 33 33 33 32 31 29 28 27 28 28 28 28 29 30 33 35 37 38 38 38 36 35 36 38 40 40 39
16 16 16 16 16 17 17 17 18 18 18 17 17 16 17 17 19 20 21 20 20 20 20 22 23 24 25 25 25 25 23 20 16 10 7 8 11 14 17 19 20 20 22 23 23 22 22 20 18 17 16 15 16 20 25 30 32 33 34 34 34 33 32 31 30 28 27 27 28 29 28 29 30 31 34 36 38 38 38 36 36 37 39 40 40 39
16 16 15 16 16 16 16 17 17 17 17 17 17 17 17 18 18 19 20 19 18 18 19 21 22 23 24 25 25 24 24 22 18 12 8 8 11 14 17 19 20 21 23 23 23 22 22 20 18 17 16 15 15 17 20 25 29 32 33 34 33 33 32 32 31 29 27 28 29 30 29 29 30 30 32 34 37 38 38 37 37 38 40 40 39 38
16 16 15 15 16 16 16 17 18 18 17 17 17 18 18 18 18 18 18 18 17 17 18 20 21 22 23 23 23 22 23 22 19 14 8 8 11 14 17 19 21 23 25 24 24 23 22 19 17 16 16 16 16 16 17 21 25 30 32 33 33 33 33 32 31 30 29 30 30 30 30 29 29 30 30 31 34 37 38 38 38 40 41 39 37 36
15 15 15 15 15 16 17 18 18 19 18 18 18 17 17 17 17 17 18 17 16 16 17 19 20 21 22 22 21 21 21 21 20 16 11 8 10 14 18 21 23 25 26 25 24 22 21 18 16 15 15 16 16 17 17 19 22 27 31 33 33 33 33 32 31 30 30 30 30 29 28 28 28 29 30 30 32 34 36 37 38 40 40 38 35 34
14 15 15 15 16 16 16 17 18 18 18 18 18 17 17 17 17 17 17 16 15 15 15 16 18 20 20 21 20 20 20 20 19 18 15 12 12 15 20 24 25 25 24 23 22 21 19 17 15 14 14 15 16 18 18 19 21 24 28 32 33 34 34 33 32 30 29 28 28 27 26 26 27 28 29 30 31 33 33 34 36 38 38 36 33 32
13 13 13 15 16 17 17 17 16 15 14 14 14 14 15 15 15 15 14 14 13 13 13 14 16 17 18 19 19 19 19 19 18 18 17 16 15 16 21 25 25 23 21 20 20 19 18 16 15 14 13 14 16 18 20 20 20 22 26 31 33 35 35 34 31 29 28 27 26 26 25 25 26 27 28 29 31 32 31 30 32 35 36 35 33 32
12 13 12 11 12 13 12 10 7 7 7 7 7 7 8 11 12 12 11 11 11 11 12 13 14 15 16 16 17 18 18 18 18 18 18 17 16 15 20 23 22 19 18 19 19 19 17 16 14 13 13 14 16 18 20 21 20 21 25 29 33 35 35 34 31 29 27 26 26 26 26 26 26 27 27 28 30 31 31 31 31 32 34 35 35 34
11 12 11 11 10 8 7 9 12 14 14 12 10 8 9 13 15 14 12 10 10 10 11 12 12 13 14 14 15 17 18 19 18 18 18 19 17 15 17 20 19 17 16 18 19 19 18 16 15 14 13 14 15 18 21 22 22 21 23 27 32 35 35 34 31 29 27 27 28 28 29 30 29 28 26 27 29 30 32 34 34 33 34 35 36 36
11 11 10 10 11 12 14 15 15 14 14 13 10 9 10 15 18 17 14 12 11 10 10 10 11 12 13 14 15 16 17 18 19 18 19 20 19 17 17 18 18 16 16 17 18 18 18 17 15 14 14 14 16 18 21 23 23 22 21 24 29 33 35 34 31 29 28 29 29 29 30 32 32 30 28 28 28 29 31 35 36 35 35 37 38 36
11 11 10 10 10 12 13 13 12 11 11 11 11 11 12 15 17 16 13 13 13 12 10 9 10 10 11 13 15 17 17 17 18 19 19 21 20 18 17 16 15 15 16 17 18 18 18 17 16 15 15 15 16 18 21 23 24 23 21 22 26 30 33 34 32 30 30 30 30 30 30 32 33 31 28 28 28 28 30 32 34 35 36 39 39 36
11 10 9 9 10 11 12 12 12 11 11 12 12 13 14 14 14 13 11 11 12 13 13 11 10 10 10 11 14 15 14 14 16 17 19 21 21 19 17 15 13 13 15 16 18 18 18 18 17 16 16 16 18 20 21 23 24 24 22 21 22 26 31 33 33 32 31 31 30 29 29 31 31 29 27 26 27 27 28 30 31 33 35 39 38 34
10 10 9 8 9 11 12 12 12 12 13 13 14 14 13 12 12 11 10 10 11 11 10 9 8 7 7 8 9 10 10 10 12 15 18 21 21 18 14 13 12 12 14 15 17 18 18 18 18 17 17 17 19 20 22 23 24 24 23 21 20 22 27 32 34 33 31 31 30 28 28 28 28 27 25 25 25 26 27 28 30 32 33 36 36 33
10 10 9 9 9 11 12 13 13 13 14 14 14 14 13 12 12 12 11 10 9 8 7 7 4 2 3 4 6 6 6 8 11 15 17 19 18 15 11 12 12 13 14 15 16 17 18 19 19 19 18 18 19 21 23 24 25 25 24 23 20 20 23 30 34 34 32 31 31 30 29 28 27 25 25 25 24 25 26 27 28 31 33 34 34 32
10 10 10 10 10 11 12 13 13 14 14 15 15 14 14 13 13 12 11 10 8 7 7 7 5 2 1 2 4 5 5 6 10 13 15 17 15 12 10 11 13 14 15 16 16 17 18 19 20 20 19 19 20 21 23 24 25 26 25 24 22 20 20 26 31 34 34 33 33 33 32 29 27 25 26 26 25 24 25 25 27 29 32 33 33 32
10 10 11 11 11 11 12 12 13 14 14 15 16 16 15 14 13 12 11 10 9 8 8 8 7 6 4 4 4 5 7 8 10 13 15 14 13 11 10 11 13 15 16 17 17 17 17 18 19 20 20 20 20 21 23 24 25 26 26 25 23 22 21 23 29 34 34 35 35 35 34 31 28 26 26 27 26 25 24 23 24 26 29 32 33 32
10 10 11 12 12 12 11 12 13 14 15 16 17 16 14 14 13 12 11 10 9 9 9 9 9 7 6 3 3 5 7 8 9 12 13 12 11 12 12 13 15 16 16 17 18 18 17 17 18 19 20 20 21 22 23 24 24 25 25 25 24 23 22 23 26 31 34 35 35 34 33 30 28 27 27 28 28 27 26 23 22 23 27 30 32 33
10 10 12 14 13 11 10 12 14 16 16 17 17 16 14 13 12 12 12 11 10 10 9 9 9 9 10 10 10 7 4 5 7 9 10 9 9 12 14 15 16 16 16 17 17 17 17 17 18 19 20 21 21 22 23 23 24 24 24 25 24 24 24 24 25 29 33 34 34 32 31 29 28 28 28 29 29 28 27 24 23 25 28 32 34 38
11 11 13 15 14 12 12 13 14 15 16 17 16 15 13 13 12 12 12 12 11 10 10 11 13 15 17 19 17 10 3 3 6 8 9 7 7 11 16 17 17 16 16 17 17 17 17 17 18 19 20 21 22 22 23 23 24 24 24 24 24 24 24 25 26 28 32 33 33 31 29 28 28 28 28 29 29 28 27 26 27 30 34 38 42 46
13 13 14 15 15 14 13 14 14 15 16 16 16 15 15 15 14 14 15 14 13 13 14 17 20 21 20 20 17 11 5 4 5 8 8 4 4 9 16 18 18 17 16 16 16 16 16 17 17 18 19 20 21 22 23 23 23 23 23 24 25 25 25 26 27 29 32 33 33 31 29 28 28 28 29 29 29 29 30 31 34 38 42 46 50 52
14 14 15 15 15 14 14 14 13 14 15 16 16 16 17 16 15 15 15 15 15 15 16 17 18 18 18 17 15 11 6 5 6 8 9 6 5 8 14 18 18 17 16 16 16 16 16 17 17 17 17 18 20 22 23 23 23 23 23 23 24 25 25 26 28 30 31 33 32 31 29 29 29 29 30 30 32 33 36 39 43 46 49 51 52 53
14 14 14 14 14 14 13 13 12 13 14 15 16 16 17 15 13 11 10 10 11 12 12 13 12 13 13 14 13 10 8 8 8 9 10 7 6 8 13 17 17 15 14 15 16 16 17 18 18 17 16 17 19 21 22 23 23 23 23 23 23 24 25 27 29 31 31 32 32 31 30 30 31 32 33 34 37 40 43 46 49 51 51 51 51 51
14 14 14 13 13 13 12 11 10 11 13 14 15 16 16 14 12 10 8 8 9 9 8 7 6 7 9 11 11 10 10 10 10 11 12 9 6 7 13 17 17 15 13 14 16 18 19 19 18 16 15 16 18 20 21 22 22 23 23 23 24 24 26 28 30 31 31 31 31 31 32 34 35 37 38 40 42 45 49 52 53 53 52 51 50 49
14 14 13 13 13 13 12 11 10 10 12 12 13 14 14 14 12 10 9 10 11 10 7 4 4 5 7 8 9 10 10 10 11 12 14 12 9 7 11 15 16 15 14 13 15 17 19 19 18 16 15 17 19 21 21 22 22 22 23 24 25 26 28 29 31 32 30 31 32 34 37 39 41 42 43 45 47 49 53 55 55 54 52 50 49 47
15 14 14 14 14 14 13 11 10 10 12 12 12 12 13 13 12 9 9 11 12 10 6 4 3 3 4 4 5 8 11 11 11 13 15 13 10 7 10 14 17 17 15 13 13 15 16 17 17 17 17 18 20 21 22 23 23 23 24 25 27 28 30 32 33 33 33 34 36 39 42 44 45 47 48 50 51 53 55 56 56 55 53 51 48 46
17 16 16 16 16 15 14 14 13 12 12 12 12 12 12 13 12 10 11 12 12 9 6 5 4 4 5 8 8 6 10 12 11 12 14 11 8 7 11 15 18 19 17 13 12 12 12 13 14 16 19 20 21 22 23 24 24 25 26 27 29 31 33 35 36 36 37 38 40 43 45 46 48 50 52 53 55 57 58 58 57 55 53 50 47 45
19 19 19 18 18 18 17 17 16 15 13 13 12 12 12 13 13 12 12 13 11 8 6 6 5 5 6 8 7 5 6 10 11 12 12 8 6 7 12 15 18 19 18 13 7 6 7 10 13 16 19 20 21 23 24 25 26 27 28 30 32 34 36 38 39 41 42 43 45 47 48 49 50 52 53 55 57 59 59 59 57 55 52 49 47 45
19 19 20 20 20 20 20 19 18 17 16 15 14 14 14 14 14 14 13 13 11 9 7 6 6 6 6 4 3 2 2 5 9 10 9 6 4 7 12 13 16 19 20 15 6 1 3 6 11 16 21 23 24 26 27 29 31 33 34 35 37 38 40 42 45 46 48 49 50 51 52 53 54 55 56 57 58 58 59 58 57 54 52 49 46 45
18 18 18 19 20 20 20 20 20 19 18 18 17 17 16 15 15 14 14 13 12 11 9 8 7 6 6 4 3 3 2 1 4 7 6 3 3 6 10 11 13 16 18 17 12 7 4 2 7 16 24 27 28 28 30 32 35 37 39 40 42 44 46 48 50 51 51 52 53 54 54 55 56 57 58 58 58 58 58 57 56 54 52 49 47 45
17 17 18 19 19 19 19 20 20 20 20 19 19 19 18 17 16 15 15 14 13 12 11 9 8 8 7 7 7 8 9 8 2 3 3 1 2 5 8 9 11 13 15 16 16 15 11 8 10 16 23 27 29 29 31 33 36 39 42 43 44 45 48 50 51 51 51 52 52 53 53 53 54 54 55 56 56 56 55 55 54 53 52 50 49 48
17 17 18 18 19 19 19 20 20 20 20 20 20 20 20 19 18 17 16 15 14 13 12 10 10 9 8 8 9 11 14 11 5 3 4 1 1 3 7 8 9 12 14 15 17 18 16 16 16 17 20 25 28 30 31 33 35 39 42 43 44 45 47 49 50 50 50 50 49 49 48 48 48 49 49 49 50 50 51 51 51 52 52 52 52 51
17 17 18 18 19 19 19 20 20 20 20 21 21 21 21 21 20 19 18 16 15 14 12 11 10 10 10 10 10 12 15 12 5 2 4 2 0 2 5 7 9 12 16 18 18 18 16 16 19 20 20 21 25 28 30 31 33 36 39 42 43 44 46 49 49 49 49 48 47 45 44 44 43 43 43 43 44 45 46 47 48 49 50 52 53 53
17 17 18 18 19 19 19 19 20 20 21 22 22 23 22 22 21 20 18 17 16 14 12 10 9 8 9 11 13 15 17 14 6 1 4 3 1 2 3 5 9 14 17 20 22 20 17 16 19 22 22 19 19 21 25 29 31 34 36 39 41 42 44 47 48 48 48 46 45 43 42 42 41 40 40 41 42 44 44 45 45 46 48 49 50 51
17 17 18 19 19 19 19 19 20 21 21 22 23 23 23 22 21 20 19 18 16 15 13 10 8 7 7 9 12 15 16 12 5 3 6 5 4 4 3 4 8 14 18 22 24 23 21 17 18 20 20 19 17 17 19 26 30 32 34 36 38 40 41 43 45 47 46 45 44 43 42 42 41 41 41 42 43 43 43 44 44 46 47 47 48 49
18 18 18 19 19 19 19 19 20 21 22 23 23 23 23 22 21 20 18 17 16 15 13 12 10 8 6 6 8 10 11 9 4 6 9 7 6 6 3 3 7 13 18 24 27 28 26 19 13 10 12 17 20 21 23 26 28 29 31 34 36 38 38 40 42 44 45 45 44 43 43 43 43 43 43 43 44 44 43 43 44 45 46 47 47 46
18 18 19 20 20 20 19 20 20 22 23 23 23 22 22 21 20 19 18 17 16 15 14 12 11 10 9 7 6 5 5 4 5 9 11 10 9 7 4 3 6 12 18 23 28 30 30 25 18 14 13 16 19 21 24 26 28 29 31 33 34 35 35 37 39 42 44 45 45 44 44 44 45 44 44 44 45 45 44 43 43 44 45 45 44 43
19 19 19 20 20 20 20 20 21 22 22 23 22 22 22 22 21 20 19 17 16 15 14 13 12 11 11 10 8 4 3 6 9 11 12 12 11 9 7 7 9 13 18 21 24 25 27 26 25 25 26 23 21 21 23 24 27 30 32 30 28 27 30 33 36 39 43 46 47 46 46 46 46 46 45 44 44 44 43 42 42 43 44 43 42 41
19 19 20 21 21 21 21 21 21 22 22 22 22 22 23 23 23 22 21 20 19 17 16 14 14 13 13 13 11 10 10 11 12 14 14 14 13 12 11 12 12 14 18 20 21 22 23 25 27 28 28 28 28 27 25 24 26 29 31 29 27 27 29 32 36 39 42 45 47 48 47 46 45 44 43 43 42 42 42 42 41 41 41 41 42 41
19 20 20 21 21 21 21 22 22 22 22 22 22 23 23 24 23 23 22 22 21 21 19 17 16 14 13 14 15 16 15 15 15 16 17 17 16 15 15 14 14 15 17 20 21 23 24 26 28 29 30 30 29 26 24 23 25 27 29 30 31 31 31 31 33 36 39 41 42 44 44 43 42 42 41 40 39 39 40 40 39 39 39 38 38 39
19 19 20 21 21 21 21 22 22 22 22 22 22 23 23 23 23 22 21 21 21 21 20 19 16 14 12 13 16 18 19 19 19 19 20 19 19 18 18 17 16 17 19 21 21 22 23 24 25 27 29 30 30 28 25 24 24 25 28 31 33 30 23 24 28 31 33 36 38 39 41 41 42 42 41 40 39 38 39 39 39 38 38 37 36 35
19 19 20 21 21 21 22 22 22 21 21 21 22 22 23 24 23 22 21 20 20 20 20 18 16 13 12 12 14 16 19 21 23 24 24 22 21 21 21 20 19 19 20 21 20 20 21 22 22 24 27 30 30 30 29 27 26 25 26 30 32 31 27 26 28 31 32 34 36 38 40 43 44 44 43 41 40 39 39 38 38 37 36 35 34 33
20 20 21 21 21 21 21 22 22 21 21 21 21 22 23 24 24 22 21 20 19 19 19 18 15 13 12 12 12 14 16 19 23 26 27 26 24 23 23 23 22 21 21 20 21 21 21 21 21 23 26 28 30 31 30 29 28 26 25 26 27 29 30 32 33 34 35 36 38 40 43 45 46 46 44 41 40 39 38 38 37 36 35 35 34 33
21 21 22 22 22 22 21 22 21 21 21 21 21 22 23 23 23 22 21 20 19 19 18 18 16 14 12 12 12 12 13 16 20 24 27 28 27 26 26 25 24 23 22 22 22 22 22 22 23 24 25 25 25 26 28 29 28 27 26 27 29 31 33 33 33 34 37 39 40 42 44 46 47 45 42 41 39 39 38 38 37 37 36 35 35 34
22 22 22 22 22 21 22 22 21 21 20 20 21 21 22 22 22 21 21 20 19 18 18 17 17 15 14 13 13 12 12 14 17 20 24 27 29 30 29 28 26 26 26 27 26 25 24 23 22 23 24 23 22 21 23 26 28 29 28 29 31 32 31 31 32 33 37 39 40 42 44 46 45 43 41 41 40 39 38 38 37 36 35 35 34 33
22 22 22 21 21 21 21 21 21 21 20 20 20 21 22 22 21 21 20 20 19 18 18 17 16 16 15 15 15 14 13 14 15 17 20 23 27 30 32 31 29 28 29 30 30 30 29 26 24 22 21 22 22 21 22 24 27 29 31 32 32 32 32 32 33 35 37 37 38 41 43 44 43 41 39 38 37 36 37 36 35 34 33 32 32 31
21 22 21 21 21 21 20 21 21 20 20 20 20 20 21 21 21 20 20 19 19 18 18 17 16 15 15 16 16 15 15 15 16 16 17 19 23 28 32 33 32 30 30 30 32 32 32 31 29 26 22 21 21 22 23 23 26 29 31 32 33 33 33 34 35 36 36 36 36 38 40 42 42 42 41 37 34 33 34 34 32 31 29 28 28 28
21 22 21 21 20 21 20 20 20 20 19 19 19 19 20 21 21 21 20 19 19 18 18 17 16 15 15 16 16 16 15 15 15 15 15 15 18 23 28 31 32 30 27 26 26 28 30 31 30 29 27 23 21 21 21 23 25 28 29 30 33 34 34 34 35 36 36 36 37 38 40 40 41 42 42 38 35 33 33 32 30 28 26 25 25 25
22 22 22 21 21 21 21 20 20 19 19 19 19 18 19 19 20 21 21 20 19 19 18 17 16 16 15 15 16 16 15 15 15 15 14 13 14 17 22 27 30 29 24 20 18 18 19 19 21 23 26 24 21 20 20 22 24 26 26 27 30 33 34 34 35 37 38 38 39 40 40 39 39 40 39 37 34 31 30 29 28 27 25 24 23 23
Wind_Direction
286 288 289 289 288 287 288 291 294 297 299 302 304 306 309 312 313 311 307 304 304 305 307 308 308 309 312 320 329 336 337 327 292 252 238 235 236 237 239 240 238 235 232 231 232 233 232 228 224 221 221 220 219 216 215 214 215 215 216 217 215 211 208 205 204 205 210 216 219 218 216 215 212 209 205 202 200 200 202 203 203 201 199 198 197 196
288 288 287 287 286 286 287 288 291 293 296 299 300 302 306 311 314 314 310 305 303 304 306 306 304 303 305 312 322 331 336 332 313 272 251 245 243 242 241 239 234 229 226 227 229 231 229 225 221 218 219 220 218 215 214 213 213 213 215 216 215 212 208 205 203 203 207 214 217 217 215 213 211 208 205 202 199 200 202 203 203 200 199 198 197 197
289 288 287 286 286 285 284 286 287 289 292 294 296 299 305 311 315 316 313 308 303 301 302 302 301 300 302 306 315 326 334 335 326 296 269 259 252 245 239 233 227 223 222 224 227 227 225 222 219 217 219 222 219 215 212 211 211 211 213 216 215 212 209 205 202 202 205 212 216 216 214 212 209 207 204 200 199 200 203 203 202 200 199 198 197 196
286 284 284 285 283 281 279 281 283 286 289 293 297 301 307 311 314 315 314 309 304 299 298 297 297 298 300 303 311 322 331 335 331 311 281 267 255 245 235 227 222 219 220 224 225 224 222 221 219 217 218 222 221 218 214 210 209 209 212 214 214 212 208 205 202 201 204 211 217 218 216 213 209 206 202 199 198 200 202 202 201 200 200 200 197 195
282 281 281 281 281 279 278 279 281 284 289 294 300 304 307 308 310 312 312 309 304 299 296 295 295 297 299 302 308 318 328 334 332 320 288 263 250 241 232 224 218 217 220 223 224 223 222 222 221 218 217 219 220 220 217 213 210 209 210 211 211 209 207 204 201 200 202 211 218 221 219 214 208 204 201 198 197 198 200 200 200 200 202 202 198 194
283 279 277 276 276 277 278 278 279 282 289 294 299 301 302 302 304 306 307 307 305 302 299 296 296 297 298 300 305 314 325 332 332 322 292 256 241 236 230 222 217 216 220 222 223 222 223 222 220 218 217 216 216 218 218 215 213 211 210 208 207 205 204 203 201 199 202 211 219 223 221 216 208 202 198 196 196 196 197 198 199 202 204 203 199 194
286 280 274 272 272 273 274 274 274 278 284 289 293 294 295 296 296 298 300 303 305 304 302 299 298 297 298 299 303 311 323 330 331 324 300 258 239 234 229 222 218 218 221 222 223 223 223 220 217 216 215 214 214 215 216 216 214 213 212 210 207 205 203 203 201 200 202 211 218 222 222 217 209 202 198 195 194 195 196 198 200 203 205 203 198 195
288 279 272 267 266 268 268 268 268 270 275 281 286 288 290 290 289 290 295 300 303 303 302 301 299 298 298 298 301 308 320 328 330 327 316 286 255 240 230 223 220 220 221 222 223 223 220 217 214 212 212 212 212 212 214 215 215 214 213 211 209 206 204 204 202 201 202 209 216 220 219 215 210 205 200 197 195 194 196 198 202 205 205 201 197 195
291 279 267 260 258 260 263 265 266 268 272 277 280 283 286 286 285 285 288 293 298 300 302 302 302 300 299 296 297 303 314 323 327 327 323 311 284 253 231 221 219 220 221 221 220 219 216 213 210 209 209 210 210 211 212 214 215 214 213 211 209 208 206 205 203 201 202 207 213 216 216 213 210 207 204 201 198 196 197 200 204 207 206 201 198 197
308 297 280 264 254 252 255 260 267 274 279 280 280 282 284 287 287 284 280 283 289 296 300 302 302 301 299 295 294 297 307 316 322 323 321 314 294 260 229 217 214 215 217 217 216 214 212 210 209 208 208 208 208 208 209 212 214 214 212 211 209 209 208 207 205 201 200 204 210 214 213 211 209 207 205 202 200 199 199 202 206 208 207 203 201 200
328 327 320 302 278 262 256 261 283 317 334 334 328 318 313 313 311 304 295 286 284 288 290 293 295 295 295 294 292 293 299 309 315 317 316 311 296 261 226 212 208 210 213 214 214 213 212 211 211 210 209 207 206 206 207 209 212 214 213 210 209 209 209 208 205 201 199 202 207 211 212 211 209 207 205 203 201 199 198 201 206 210 208 205 204 203
336 338 339 342 343 344 349 1 11 16 18 18 13 4 356 348 345 341 327 311 292 278 273 278 284 286 285 286 287 288 292 302 308 310 309 306 295 267 228 209 204 205 209 212 214 215 214 214 214 213 211 208 206 205 205 207 210 213 214 212 210 210 209 208 204 201 199 203 207 210 212 212 211 208 205 204 202 199 195 197 203 209 208 205 205 204
339 339 340 350 0 6 7 6 8 12 15 15 10 358 345 341 345 346 338 327 312 289 265 261 268 277 282 282 281 282 288 297 301 301 299 297 288 267 233 210 201 201 205 210 214 217 217 217 217 216 214 209 206 205 205 206 208 211 214 214 213 211 210 207 204 202 202 206 208 209 210 211 212 210 207 205 204 201 197 196 201 206 206 205 205 204
345 345 347 353 0 5 5 4 4 5 6 4 358 346 336 335 339 341 336 328 323 316 297 269 258 265 276 280 278 277 282 291 295 294 290 287 279 262 234 214 204 202 203 207 213 217 218 218 218 218 215 210 206 204 204 205 206 209 213 215 215 214 211 208 204 203 205 208 209 208 207 209 209 208 206 204 203 202 200 199 201 203 205 206 206 205
348 350 353 356 360 1 1 0 360 358 355 352 348 343 339 338 339 339 334 326 323 322 317 297 274 260 262 269 272 272 276 285 288 285 279 276 271 259 235 216 207 206 206 209 212 215 217 217 218 218 216 211 205 202 203 204 205 207 210 214 216 215 212 208 206 205 205 207 208 207 206 206 206 205 202 200 200 201 202 201 202 203 205 207 208 208
351 354 356 356 357 356 355 355 353 351 347 345 344 343 341 339 337 333 327 320 318 317 310 298 282 263 254 258 261 264 269 276 274 269 266 263 262 255 233 215 208 209 212 212 213 214 215 216 217 217 217 212 206 202 202 203 204 206 208 211 215 215 212 209 207 205 205 206 206 206 205 205 204 202 199 197 197 198 200 202 203 204 204 206 207 207
353 357 357 355 353 352 350 350 348 346 343 342 341 341 338 334 329 324 318 315 313 309 296 285 275 252 245 246 248 251 256 258 258 257 257 255 255 251 230 215 208 208 212 213 214 214 214 214 214 215 216 213 207 202 201 202 203 205 206 208 211 212 211 209 206 204 203 205 207 208 208 207 205 202 199 197 195 194 197 200 202 203 203 204 203 201
354 358 357 354 350 347 346 346 345 343 341 340 338 336 333 330 326 320 315 312 310 304 295 288 282 268 194 209 223 226 233 258 270 269 263 256 254 250 233 217 212 212 212 212 214 214 214 214 213 213 214 211 207 203 201 201 202 203 204 205 206 208 209 208 205 203 201 203 207 210 211 210 207 204 201 199 196 192 193 195 198 200 201 200 199 197
352 356 356 351 346 342 342 344 343 341 339 337 335 333 330 328 325 321 315 311 308 304 298 295 292 283 262 232 217 223 241 259 280 285 277 265 254 246 234 220 215 215 215 214 213 212 212 214 214 213 211 209 206 203 201 201 202 203 203 203 202 203 207 208 205 201 200 201 205 208 210 210 208 205 203 200 196 193 191 190 192 194 196 196 196 195
347 352 353 347 340 336 337 341 341 338 335 333 331 329 327 326 323 319 314 311 308 305 299 294 294 298 305 303 268 249 247 257 272 281 281 272 252 235 228 218 214 214 215 214 213 211 209 211 212 212 209 206 204 202 201 201 202 203 203 201 199 199 202 205 201 197 197 199 202 205 206 207 206 204 202 199 197 195 192 190 190 191 192 192 191 187
342 344 346 344 338 332 333 337 338 336 334 333 330 328 326 325 321 315 310 308 307 305 300 294 296 307 317 317 306 288 240 256 276 284 284 276 248 224 217 214 213 213 215 215 213 210 206 207 210 210 206 202 201 200 201 201 202 203 203 201 197 195 198 199 196 192 192 196 200 202 203 203 202 201 199 197 196 196 194 191 188 186 184 180 176 170
339 339 343 346 341 333 330 335 336 337 338 336 332 328 328 325 318 310 305 303 301 299 296 292 295 298 298 294 294 293 270 276 286 289 289 277 240 216 207 208 210 213 215 215 212 209 206 206 208 209 206 201 198 198 200 201 201 202 203 201 197 194 194 194 190 188 190 195 199 200 199 198 197 196 194 194 194 193 190 183 177 173 169 165 159 155
344 342 344 346 344 339 337 339 340 341 342 339 333 329 327 322 312 303 298 294 292 290 290 293 296 298 297 294 295 299 305 297 294 294 293 288 244 216 202 203 206 211 216 215 212 208 205 205 207 209 207 200 196 196 197 199 200 200 201 200 198 195 194 192 189 187 189 193 196 197 197 196 193 191 189 188 186 183 177 169 164 159 155 151 148 147
350 347 347 348 347 345 344 344 343 343 343 341 337 333 330 324 315 305 298 294 291 291 295 302 304 302 297 293 293 294 291 280 284 293 298 291 264 226 203 199 202 208 213 214 211 207 204 203 206 208 207 198 193 192 193 195 196 197 198 197 196 195 194 192 191 190 192 193 194 195 195 194 190 185 181 178 173 169 164 158 153 150 147 144 143 142
352 351 350 349 348 347 347 346 344 343 344 344 341 338 334 330 326 321 316 309 302 298 297 296 294 293 295 295 293 284 263 258 267 284 295 294 273 233 206 199 198 201 204 206 206 204 201 200 203 205 203 193 186 185 187 189 191 193 194 194 193 193 193 194 194 196 196 195 193 192 188 183 178 175 171 166 162 158 154 150 147 144 142 140 139 139
353 352 351 350 349 348 347 346 344 344 345 347 346 342 339 341 344 345 342 338 335 328 313 295 282 283 288 285 277 264 251 250 255 267 280 286 277 238 206 196 192 190 188 191 194 195 195 195 197 199 197 185 179 178 181 184 186 188 190 191 191 191 192 193 195 197 195 192 188 182 175 169 165 163 161 158 154 151 148 146 143 141 139 137 136 135
356 355 355 354 354 354 353 351 349 349 349 351 350 348 348 355 357 355 353 351 349 343 325 309 295 289 282 268 253 240 235 238 244 253 264 270 268 240 205 187 179 172 166 170 176 182 184 186 190 192 191 182 177 176 179 181 184 186 187 188 188 189 190 191 193 193 188 182 175 168 162 158 156 156 155 152 150 148 144 142 141 139 137 134 132 131
0 1 0 2 2 1 1 0 359 357 355 356 355 357 360 4 2 353 347 346 345 339 322 310 303 301 292 284 259 231 215 217 229 243 253 258 257 233 194 171 162 155 148 145 152 160 166 172 178 185 188 185 182 180 181 183 186 187 187 186 186 185 186 187 187 184 180 174 167 161 156 154 153 151 149 148 147 146 143 141 140 138 136 132 129 126
4 5 6 8 8 8 9 10 9 5 1 1 2 5 9 9 2 351 346 347 345 337 323 315 312 310 307 309 302 262 205 200 212 231 241 247 245 214 177 158 152 150 144 135 129 131 136 146 158 170 178 181 180 179 181 183 185 185 184 182 181 180 180 179 178 175 172 169 165 161 157 154 151 149 147 147 145 144 143 141 140 137 135 131 128 125
3 4 7 10 11 12 12 13 11 9 6 6 7 10 11 10 4 355 352 352 347 336 322 318 319 320 317 310 300 267 202 188 197 215 229 239 230 192 169 158 154 152 147 137 119 97 102 115 128 143 156 161 163 164 165 166 167 167 166 167 169 170 170 169 167 165 163 162 161 159 157 155 152 150 149 147 145 143 142 142 140 137 133 130 127 124
358 360 2 5 7 9 10 10 9 9 9 9 10 10 9 7 3 358 356 353 347 337 323 317 317 321 321 314 294 265 192 167 178 196 219 237 227 190 173 164 158 154 151 147 139 71 87 90 106 121 133 138 139 140 142 144 145 145 146 146 149 152 155 155 153 152 151 152 152 152 152 151 150 150 149 147 146 144 143 141 139 136 132 129 126 124
356 358 359 1 3 5 6 6 6 7 7 8 8 8 6 3 360 357 354 352 347 339 328 319 315 314 309 296 290 295 302 344 158 172 200 233 232 201 184 174 164 158 155 152 146 137 128 104 104 112 118 122 123 125 129 131 133 134 135 134 134 136 140 141 140 140 140 140 141 142 143 143 144 144 145 145 146 145 143 142 140 137 134 130 127 125
356 358 359 1 2 3 3 3 4 4 3 3 3 2 1 360 358 356 353 351 348 342 333 324 316 310 303 292 282 277 281 296 316 116 146 179 219 206 200 189 173 160 152 146 139 133 127 127 118 110 110 113 116 119 122 126 128 129 130 128 127 128 130 132 131 131 131 131 131 132 134 135 136 137 139 140 141 142 141 141 141 139 137 133 130 128
357 359 1 2 2 2 2 2 2 2 1 0 359 358 357 357 356 355 352 350 348 345 338 329 318 308 302 296 288 284 284 285 302 68 107 117 209 214 217 207 183 158 143 134 128 125 123 123 121 116 110 109 110 113 117 120 123 125 127 126 125 125 126 127 127 127 127 126 126 127 128 129 130 131 133 134 135 136 137 138 139 140 139 136 134 132
359 1 2 2 1 1 1 0 0 360 359 358 357 356 355 354 353 352 351 350 349 348 345 339 327 312 300 291 288 287 288 284 288 80 96 114 295 277 243 221 188 158 141 133 129 127 125 123 123 122 117 110 107 110 114 115 118 121 123 125 125 125 126 127 127 127 126 126 125 125 125 126 126 126 128 129 131 132 133 134 135 136 136 136 136 135
1 2 3 2 1 359 358 358 358 357 357 356 355 354 353 352 352 351 351 351 351 351 350 348 340 325 307 292 284 283 287 289 284 143 108 128 187 270 284 232 189 163 146 138 135 132 129 126 123 122 119 115 110 109 111 113 116 118 119 122 124 125 126 128 128 128 127 126 125 125 125 124 124 124 124 126 128 129 130 130 130 132 133 134 135 136
4 3 2 1 360 358 356 356 356 355 354 353 353 353 352 351 351 351 352 353 355 357 358 359 355 343 322 303 293 290 292 290 274 158 125 124 171 220 291 251 193 169 153 144 139 135 132 127 124 121 118 118 119 117 113 112 113 114 116 119 122 123 125 127 128 128 127 126 125 124 124 123 122 122 122 123 124 125 126 127 128 130 131 132 134 135
4 3 1 360 358 356 355 354 354 353 352 351 350 350 350 350 350 352 354 357 0 3 6 8 9 5 352 329 311 303 298 283 234 142 125 125 162 194 253 246 195 172 158 147 142 138 135 132 128 123 119 119 120 122 122 118 115 113 114 117 120 122 124 125 127 127 126 125 124 123 123 122 122 122 122 122 123 122 122 123 126 128 130 131 132 134
4 1 359 358 356 354 353 351 351 351 351 351 350 350 351 351 354 357 0 3 6 10 13 14 15 16 18 15 0 328 293 242 165 132 123 136 158 174 185 181 170 161 154 147 143 140 139 137 135 132 127 122 120 120 122 121 119 117 115 115 115 118 122 124 125 126 125 125 124 123 122 123 123 123 123 124 124 123 122 123 126 128 130 130 130 130
2 360 358 356 354 352 351 350 350 350 351 353 354 355 356 357 360 4 8 12 15 19 22 24 25 27 30 35 41 59 142 156 141 130 130 144 154 158 156 146 141 143 145 142 140 139 137 136 134 132 132 130 127 125 123 123 123 122 119 116 113 114 119 123 125 125 126 126 125 124 124 124 124 124 125 125 125 125 125 126 128 129 131 130 128 126
0 358 356 354 351 351 351 351 352 354 355 357 358 359 1 2 2 4 9 14 19 22 24 25 27 32 40 49 64 85 112 124 127 130 136 142 143 141 144 138 134 135 138 137 135 134 132 132 131 130 131 130 129 127 125 125 125 125 123 121 119 118 119 122 124 125 125 125 125 125 125 125 124 124 125 125 125 126 128 128 128 129 130 131 130 128
359 357 354 351 350 350 351 354 356 359 1 2 3 3 3 4 3 3 5 8 11 12 14 14 15 18 28 46 64 80 93 100 108 120 131 137 138 137 138 134 131 129 130 128 126 125 127 129 131 132 132 131 129 126 123 123 123 124 122 121 119 116 114 116 120 123 122 123 124 125 125 125 124 123 123 123 123 125 127 128 128 128 128 129 130 131
357 355 352 351 351 352 354 357 360 2 4 5 5 4 5 6 6 5 6 6 5 5 5 6 6 8 16 34 52 66 76 84 93 105 118 127 132 133 132 128 123 120 120 119 118 119 123 126 128 131 133 132 130 127 124 121 120 120 121 123 122 119 114 114 117 119 120 121 122 124 124 124 123 123 123 123 123 124 126 127 127 128 129 129 129 128
356 354 354 354 356 358 360 1 2 2 3 4 5 5 6 8 10 10 9 8 6 5 4 5 8 13 20 31 43 54 64 74 84 94 104 117 126 129 127 122 117 113 113 113 114 116 118 119 122 126 131 131 129 127 126 124 123 122 123 124 125 124 125 125 123 121 119 120 121 122 124 124 124 123 122 121 122 124 125 126 126 127 128 129 129 127
359 358 358 358 359 0 1 1 2 2 4 5 6 6 7 10 12 12 11 9 7 7 7 9 13 17 20 26 36 49 59 66 75 84 94 106 117 125 124 119 113 107 105 105 109 113 115 115 118 122 125 126 127 127 128 127 126 124 122 121 120 120 121 124 124 122 120 119 120 121 122 124 123 121 118 116 117 119 121 123 124 125 126 127 127 127
3 2 1 1 1 2 2 2 2 3 5 6 7 8 9 11 13 13 12 11 9 9 10 15 20 22 19 20 28 41 54 62 69 77 86 96 108 118 121 118 111 103 97 96 99 105 110 114 119 121 121 120 121 123 127 127 125 122 120 119 117 116 117 119 120 121 121 120 119 120 122 123 122 118 114 112 113 115 118 121 123 124 125 127 127 128
5 3 2 1 1 2 2 3 4 5 6 7 8 9 10 12 13 13 13 13 12 12 13 19 23 25 23 22 26 35 47 57 66 74 82 90 100 109 114 114 110 102 95 93 94 95 98 104 112 118 120 119 117 118 121 123 123 123 122 121 119 118 116 117 119 120 120 120 120 121 123 123 119 115 113 111 111 112 115 119 122 125 126 128 129 129
5 4 3 2 2 2 2 3 4 4 4 5 7 10 12 14 15 14 13 14 15 16 16 19 22 24 24 24 26 32 44 56 66 74 82 90 98 106 111 112 109 101 94 91 91 91 92 93 97 103 110 116 119 119 119 120 122 124 125 124 122 119 118 119 120 121 120 120 121 123 124 122 119 115 113 111 109 108 111 114 119 123 126 128 130 130
7 6 4 3 4 4 2 3 4 4 4 4 6 9 12 16 18 18 16 16 17 18 19 19 21 23 24 23 25 31 41 53 64 73 81 91 100 106 110 112 110 102 92 88 87 87 88 87 85 85 91 102 111 117 119 119 121 122 123 123 122 120 119 120 122 122 122 121 122 122 122 121 121 119 116 111 107 106 107 110 114 118 123 126 128 129
8 7 6 6 6 5 4 4 4 4 4 4 5 7 11 16 18 19 19 19 19 20 20 21 23 25 25 23 23 28 35 46 56 66 76 89 102 109 112 114 113 107 97 89 85 84 85 81 77 75 77 85 97 107 114 117 118 118 118 119 120 120 120 121 122 124 124 123 123 122 120 120 120 119 116 111 107 104 104 105 108 112 117 122 124 125
9 9 8 7 7 6 6 5 5 5 5 5 6 8 12 15 18 20 21 21 21 21 21 22 25 27 26 24 23 26 32 40 47 55 67 83 101 112 116 117 117 114 107 99 92 90 89 82 74 67 64 70 80 95 110 116 116 115 113 116 119 120 120 121 122 124 124 124 123 123 122 121 120 119 116 112 108 104 102 102 103 107 113 117 119 118